DELTA 1 DEB, 10642

Orbit data source: Space-Track

DELTA 1 DEB, 10642 is space debris in SSO originally from a launch on Thu, 29 Jul 1976 UTC launched from the Air Force Western Test Range (AFWTR). Debris objects in space refer to the collection of defunct objects orbiting the Earth. Examples of debris include non-operational satellites, rocket bodies, and fragments generated from explosions, collisions, or faulty payload assembly.

Loading next visibility...
Identifier
10642, 1976-077C
Orbit
SSO
Country
Flag of USUS
Related business
Manufacturer
Unknown
Mission
Spacecraft
Bus & Motor
Unknown
Mass
Unknown
Launch date (UTC)
1976-07-29 (50 years ago)
Launch vehicle
Unknown
Launch site
Air Force Western Test Range (AFWTR)
Object type
Payload
Rocket body
Debris
Shape & HBR
Unknown shape, 0.1 m
Radar Cross Section
Small (<0.1 m²)

Expand to show TLE details & history
Last TLE update: 5 hours ago

TLE from 5 hours ago
0 DELTA 1 DEB
1 10642U 76077C   26119.15927898  .00000008  00000-0  47400-3 0  9994
2 10642 102.2446  71.5481 0102793 117.7333 263.9310 12.21828486219049
Epoch: 2026-04-29T03:49Z
TLE epoch observation values (Epoch: 2026-04-29T03:49:21.703Z)
Latitude
20.01351°
Longitude
152.57157°
Altitude
1,596.209 km
Speed
7.069 km/s
True Right ascension
04h 28m 08s
True Declination
19° 54' 53"
Sunlit
Object was in daylight at epoch
Visualization orbit readout
Latitude
Unknown
Longitude
Unknown
Altitude
Unknown
Speed
Unknown
Apparent Right ascension
Unknown
Apparent Declination
Unknown
Sunlit
N/A
Visualization observer readout
Local Sidereal Time
16:43:31
Azimuth
Unknown
Elevation
Unknown
Doppler factor
Unknown
Orbital elements
Apogee altitude
1,664.027 km
Perigee altitude
1,500.373 km
Semi-major axis
7,960.337 km
Eccentricity
0.01028
Inclination
102.2446°
RAAN
71.5481°
Arg. of periapsis
117.7333°
True anomaly
262.76135°
Mean anomaly
263.931°
Eccentric anomaly
263.34601°
Mean motion
3.05595 °/min
Orbital period
117.8 mins
BSTAR
0.000474
Loading maneuver chart data...
Computing Atmospheric mass density...
Loading historical data...
Loading historical data...
Loading historical data...
Loading historical data...
Loading historical data...
Loading historical data...
Loading historical data...

Documentation

Showing up to 5 results
|